Weather in Voyampolka

Russia / Kamchatka Krai     58°13′13″N   159°23′35″E
temp.,
°C
wind,
m/s
gust,
m/s
humid.,
%
clouds,
%
prec.,
mm/h
press.,
hPa
HPBL,
m
28 february, sun
sun2800:00−15ne227969 0.0 101920
03:00−14nne2279100 0.0 101821
06:00−17ne227789 0.0 101720
09:00−15ne2279100 0.0 101620
12:00−11n2382100 0.0 101494
15:00−10n3487100 0.0 1011167
18:00−12nw3394100 0.0 100850
21:00−8ne71276100 0.0 1007261
1 march, mon
mon100:00−10nne81474100 0.0 1004286
03:00−12n5982100 0.0 1001221
06:00−15nnw4693100 0.0 1000149
09:00−19nnw3594100 0.0 999148
12:00−18nw2291100 0.0 999225
15:00−17nnw2292100 0.0 998250
18:00−19nnw3496100 0.1 999198
21:00−21nnw2495100 0.0 100295
2 march, tue
tue200:00−22nw2496100 0.1 100496
03:00−20w2499100 0.1 1007122
06:00−20wsw3598100 0.2 1009151
09:00−20wsw3498100 0.1 1013153
12:00−18w3491100 0.4 1015572
15:00−16wsw2389100 0.4 1018612
18:00−16ssw2293100 0.6 102057
21:00−19se3388100 0.0 102225
3 march, wed
wed300:00−21se337983 0.0 102428
03:00−15s41095100 0.2 1025268
06:00−16sse498796 0.2 1025140
09:00−15se2382100 0.0 102229
12:00−10ene5872100 0.0 1017428
15:00−9ene5982100 0.2 1008723
18:00−8e41188100 0.6 998723
21:00−8ne3688100 0.1 987183
4 march, thu
thu400:000ese102276100 1.1 976641
03:00+2ese102177100 0.4 965721
06:00−2ssw18266183 1.1 9661063
09:00−16sw10188382 0.1 9781197
12:00−13wsw13218191 0.3 9831802
15:00−13wsw152285100 0.5 9872272
18:00−13wsw152581100 0.8 9892217
21:00−13wsw13238398 0.4 9921731